Find Starlink 30813

NORAD ID: 58213 Int'l Des: 2023-170 Owner: SPXS Country: US Constellation: starlink operational
LEOCIRCULAR

实时位置

正在加载3D地球...

关于 Starlink 30813

正在加载描述...

即将过境

Passes for default location (London). Set your location on the main map for personalized predictions.

高度历史

Loading altitude history...

两行轨道根数

1 58213U 23170H 26121.40857919 .00002264 00000-0 91750-4 0 9997
2 58213 43.0024 256.3723 0001823 268.4864 91.5779 15.27588436138362
Epoch: May 1, 2026 • Age: 7 hours

当前状态

高度 486.7 km
速度 7.62 km/s
星下点 -19.40°S, 17.8°W
发射日期 Nov 4, 2023
运行时间 2.4 years
类型 internet

技术详情

分类 Payload
质量 730.00 kg
干质量 700.00 kg
总质量 730.00 kg
长度 0.30 m
直径 4.10 m
跨度 29.00 m
形状 Box + pan
制造商 SPXS
平台类型 Starlink V2M
阶段状态 In Orbit
所有者/国家 SPXS/US

Most Searched